This demonstration page uses our WeatherBlox Daily Observations layout. Learn more.

Left ArrowRight Arrow

41.55636, -103.73856

Hourly Observations for April 8, 2015

Temp ( °F °C ) Dew Point ( °F °C ) Humidity (%) Winds ( mph kmh ) Pressure ( in mb ) Visibility ( mi km ) Precip ( " mm )
12:01 am 00:01 Cloudy 48 8.9 41 5 77 77 E 14 22 29.91 1013 10 16 0.00 0.00
12:53 am 00:53 Cloudy 47 8.3 41 5 80 80 ESE 17 28 29.90 1012 10 16 0.00 0.00
1:53 am 01:53 Cloudy 46 7.8 40 4.4 79 79 E 15 24 29.87 1012 10 16 0.00 0.00
2:07 am 02:07 Cloudy 46 7.8 40 4.4 79 79 E 17 28 29.88 1012 10 16 0.00 0.00
2:53 am 02:53 Cloudy 45 7.2 40 4.4 83 83 ESE 20 31 29.85 1011 10 16 0.00 0.00
3:53 am 03:53 Cloudy 44 6.7 40 4.4 85 85 SE 13 20 29.84 1010 10 16 0.00 0.00
4:11 am 04:11 Cloudy 44 6.7 40 4.4 85 85 SE 14 22 29.85 1011 10 16 0.00 0.00
4:27 am 04:27 Cloudy 44 6.7 40 4.4 85 85 SE 13 20 29.85 1011 10 16 0.00 0.00
4:53 am 04:53 Cloudy 44 6.7 40 4.4 85 85 SE 15 24 29.82 1010 10 16 0.00 0.00
5:53 am 05:53 Cloudy 43 6.1 40 4.4 89 89 ESE 20 31 29.82 1010 9 14 0.00 0.00
6:14 am 06:14 Cloudy 43 6 41 5 93 93 ESE 15 24 29.88 1012 7 11 0.00 0.00
6:38 am 06:38 Cloudy with Mist and Fog 43 6 41 5 93 93 ESE 15 24 29.85 1011 2 3 0.00 0.00
6:53 am 06:53 Cloudy with Mist and Fog 42 5.6 41 5 96 96 ESE 15 24 29.82 1010 2 2 0.00 0.00
7:13 am 07:13 Cloudy with Mist and Fog 42 5.6 41 5 96 96 ESE 18 30 29.85 1011 3 5 0.00 0.00
7:53 am 07:53 Cloudy with Mist and Fog 42 5.6 40 4.4 92 92 ESE 17 28 29.80 1009 3 5 0.00 0.00
8:53 am 08:53 Cloudy with Mist and Fog 43 6.1 41 5 93 93 SE 15 24 29.79 1009 5 8 0.00 0.00
9:20 am 09:20 Cloudy 45 7 43 6 93 93 ESE 14 22 29.80 1009 7 11 0.00 0.00
9:53 am 09:53 Cloudy 49 9.4 42 5.6 77 77 SE 13 20 29.74 1007 8 13 0.00 0.00
10:30 am 10:30 Mostly Cloudy 52 11 43 6 72 72 SE 16 26 29.71 1006 10 16 0.00 0.00
10:43 am 10:43 Partly Cloudy 54 12.2 43 6.1 67 67 SE 15 24 29.65 1004 10 16 0.00 0.00
10:53 am 10:53 Partly Cloudy 54 12.2 43 6.1 67 67 SE 15 24 29.69 1005 10 16 0.00 0.00
11:53 am 11:53 Partly Cloudy 58 14.4 42 5.6 56 56 SSE 17 28 29.65 1004 10 16 0.00 0.00
12:53 pm 12:53 Mostly Sunny 59 15 41 5 51 51 SSE 18 30 29.62 1003 10 16 0.00 0.00
1:53 pm 13:53 Sunny 61 16.1 39 3.9 44 44 SSE 17 28 29.58 1002 10 16 0.00 0.00
2:53 pm 14:53 Mostly Sunny 62 16.7 41 5 46 46 ESE 21 33 29.54 1000 10 16 0.00 0.00
3:53 pm 15:53 Sunny 59 15 41 5 51 51 ESE 20 31 29.54 1000 10 16 0.00 0.00
4:53 pm 16:53 Sunny 59 15 42 5.6 54 54 ESE 24 39 29.54 1000 10 16 0.00 0.00
5:53 pm 17:53 Partly Cloudy 53 11.7 41 5 64 64 E 16 26 29.59 1002 10 16 0.00 0.00
6:53 pm 18:53 Partly Cloudy 50 10 41 5 71 71 E 17 28 29.62 1003 10 16 0.00 0.00
7:28 pm 19:28 Mostly Cloudy with Nearby Thunderstorms 50 10 39 4 67 67 NW 14 22 29.65 1004 10 16 0.00 0.00
7:53 pm 19:53 Cloudy with Nearby Thunderstorms 43 6.1 39 3.9 86 86 NNE 15 24 29.73 1007 3 5 0.09 2.29
8:15 pm 20:15 Cloudy with Rain 43 6 N/A N/A NE 14 22 29.74 1007 4 6 0.07 1.78
8:53 pm 20:53 Cloudy with Light Rain 45 7 N/A N/A ENE 16 26 29.74 1007 10 16 0.12 3.05
9:53 pm 21:53 Cloudy with Light Rain 43 6 N/A N/A ENE 16 26 29.76 1008 10 16 0.00 0.03
10:53 pm 22:53 Cloudy with Rain 43 6 N/A N/A NE 7 11 29.76 1008 5 8 0.01 0.25
11:04 pm 23:04 Cloudy with Light Rain 43 6 N/A N/A N 9 15 29.80 1009 5 8 0.00 0.00
11:11 pm 23:11 Cloudy with Rain 43 6 N/A N/A N 12 19 29.80 1009 4 6 0.04 1.02
11:21 pm 23:21 Cloudy with Light Rain 43 6 N/A N/A N 9 15 29.80 1009 5 8 0.06 1.52
11:29 pm 23:29 Cloudy with Light Rain 43 6 N/A N/A N 12 19 29.80 1009 7 11 0.07 1.78
11:53 pm 23:53 Cloudy with Light Rain 41 5 N/A N/A N 5 7 29.80 1009 7 11 0.08 2.03

Powered by AerisWeather